Location: Kalberh�ni
(46.4610°N, 7.2453°E)
Time: 04:58:49
(UTC+00:00)

Cosmos 1802 Rocket - Pass Details

Date: 30 October 2021
Orbit: 955 x 1010 km, 82.9° (Epoch: 05 December)

Event Time Altitude Azimuth Distance (km) Brightness Sun altitude
Rises 17:43:33 0° 161° (SSE) 3,619 6.8 -15.0°
Reaches altitude 10° 17:46:11 10° 153° (SSE) 2,679 6.1 -15.5°
Maximum altitude 17:51:45 38° 88° (E) 1,430 4.4 -16.5°
Drops below altitude 10° 17:57:22 10° 23° (NNE) 2,711 6.1 -17.4°
Sets 18:00:03 0° 16° (NNE) 3,669 6.8 -17.9°
